Flag for Poland Weather past 2 weeks in Lidzbark Warmiński, Poland

Now
32 °F

Chilly.


Feels Like: 32 °F
Forecast: 31 / 35 °F
Wind: 2 mph from West

Location: Ketrzyn

Current Time: Jan 28, 2015 at 7:43:20 AM

Latest Report: Jan 28, 2015 at 7:00 AM


Visibility: 1 mi

Pressure: 29.80 "Hg

Humidity: 100%

Dew point: 31 °F

Location of Lidzbark WarmińskiLocation

Historic Weather in Lidzbark Warmiński — Graph

°F

Lidzbark Warmiński temperature yesterday

Maximum temperature yesterday: 31 °F (at 5:00 PM)
Minimum temperature yesterday: 23 °F (at 8:00 AM)
Average temperature yesterday: 29 °F

Past Weeks' High & Low Weather Summary

 TemperatureHumidityPressure
High48 °F (Jan 14, 2:00 AM)100% (Jan 22, 4:00 AM)30.24 "Hg (Jan 22, 4:00 AM)
Low20 °F (Jan 24, 7:00 AM)65% (Jan 14, 2:00 AM)29.61 "Hg (Jan 13, 9:00 PM)
Average33 °F90%29.99 "Hg
* Reported Jan 13 6:00 AM — Jan 28 6:00 AM, Lidzbark Warmiński, Weather by CustomWeather, © 2014

Note: Actual official high and low records may vary slightly from our data, if they occured in-between our weather recording intervals... More about our weather records

Advertising

Lidzbark Warmiński weather history for previous 24 hours

 ConditionsComfort  
Time TempWeatherWind HumidityBarometerVisibility
6:00 AM
Jan 28
31 °FDuststorm.1 mph98%29.80 "Hg1 mi
5:00 AM31 °FSnow flurries. Overcast.2 mph98%29.80 "Hg1 mi
4:00 AM31 °FFog.1 mph97%29.80 "Hg1 mi
3:00 AM31 °FFog.1 mph97%29.80 "Hg1 mi
2:00 AM30 °FChilly.1 mph97%29.81 "Hg1 mi
1:00 AM30 °FFreezing rain. Overcast.2 mph96%29.81 "Hg1 mi
12:00 AM30 °FFreezing rain. Overcast.1 mph95%29.83 "Hg1 mi
11:00 PM
Jan 27
30 °FSnow flurries. Overcast.2 mph93%29.82 "Hg2 mi
10:00 PM30 °FLight snow. Overcast.2 mph92%29.83 "Hg2 mi
9:00 PM31 °FFog.2 mph91%29.84 "Hg2 mi
8:00 PM31 °FFog.2 mph90%29.84 "Hg3 mi
7:00 PM31 °FFog.3 mph89%29.84 "Hg3 mi
6:00 PM31 °FFog.3 mph89%29.83 "Hg3 mi
5:00 PM31 °FFog.5 mph88%29.83 "Hg3 mi
4:00 PM31 °FFog.5 mph90%29.82 "Hg3 mi
1:00 PM30 °FFog.5 mph86%29.82 "Hg4 mi
12:00 PM30 °FFog.6 mph87%29.83 "Hg3 mi
11:00 AM29 °FFog.7 mph89%29.84 "Hg3 mi
10:00 AM28 °FFog.7 mph89%29.84 "Hg3 mi
9:00 AM26 °FFog.7 mph90%29.85 "Hg3 mi
8:00 AM23 °FFog.6 mph91%29.86 "Hg4 mi
7:00 AM25 °FCold.7 mph88%29.86 "Hg6 mi
Weather by CustomWeather, © 2014

See weather overviewHow to use our weather pages